| time (UTC) | temp F | wind direction | speed MPH | gust MPH | rain 1hr in | rain 24hr in | rain mn in | humidity % | barometer mb |
| 20260906214012 | 92 | 79 | 2.0 | 6.0 | 0.00 | 0.00 | 0.00 | 32 | 1016.3 |
| 20260906213515 | 93 | 197 | 1.0 | 5.0 | 0.00 | 0.00 | 0.00 | 32 | 1016.4 |
| 20260906213028 | 92 | 57 | 1.0 | 6.0 | 0.00 | 0.00 | 0.00 | 32 | 1016.5 |
| 20260906212516 | 93 | 204 | 1.0 | 9.0 | 0.00 | 0.00 | 0.00 | 31 | 1016.5 |
| 20260906212014 | 93 | 147 | 3.0 | 10.0 | 0.00 | 0.00 | 0.00 | 30 | 1016.5 |
| 20260906211532 | 93 | 300 | 2.0 | 10.0 | 0.00 | 0.00 | 0.00 | 33 | 1016.6 |
| 20260906211018 | 93 | 292 | 0.0 | 6.0 | 0.00 | 0.00 | 0.00 | 32 | 1016.7 |
| 20260906210519 | 93 | 179 | 1.0 | 7.0 | 0.00 | 0.00 | 0.00 | 32 | 1016.8 |
| 20260906210035 | 92 | 220 | 1.0 | 7.0 | 0.00 | 0.00 | 0.00 | 31 | 1016.8 |
| 20260906205508 | 92 | 184 | 1.0 | 8.0 | 0.00 | 0.00 | 0.00 | 33 | 1016.9 |
| 20260906205009 | 92 | 75 | 1.0 | 8.0 | 0.00 | 0.00 | 0.00 | 34 | 1017.0 |
| 20260906204520 | 92 | 360 | 2.0 | 6.0 | 0.00 | 0.00 | 0.00 | 34 | 1017.0 |
| 20260906204012 | 92 | 52 | 2.0 | 6.0 | 0.00 | 0.00 | 0.00 | 32 | 1017.0 |
| 20260906203515 | 92 | 229 | 0.0 | 5.0 | 0.00 | 0.00 | 0.00 | 34 | 1017.0 |
| 20260906203024 | 92 | 344 | 0.0 | 4.0 | 0.00 | 0.00 | 0.00 | 35 | 1017.1 |
| 20260906202517 | 92 | 28 | 1.0 | 6.0 | 0.00 | 0.00 | 0.00 | 36 | 1017.1 |
| 20260906202015 | 92 | 262 | 1.0 | 6.0 | 0.00 | 0.00 | 0.00 | 34 | 1017.2 |
| 20260906201530 | 91 | 252 | 0.0 | 8.0 | 0.00 | 0.00 | 0.00 | 34 | 1017.2 |
| 20260906201017 | 91 | 15 | 2.0 | 8.0 | 0.00 | 0.00 | 0.00 | 35 | 1017.3 |
| 20260906200518 | 91 | 233 | 0.0 | 10.0 | 0.00 | 0.00 | 0.00 | 35 | 1017.2 |
| 20260906200034 | 91 | 67 | 1.0 | 10.0 | 0.00 | 0.00 | 0.00 | 34 | 1017.3 |
| 20260906195519 | 91 | 67 | 2.0 | 5.0 | 0.00 | 0.00 | 0.00 | 34 | 1017.4 |
| 20260906195020 | 91 | 201 | 1.0 | 6.0 | 0.00 | 0.00 | 0.00 | 35 | 1017.5 |
| 20260906194533 | 91 | 237 | 2.0 | 6.0 | 0.00 | 0.00 | 0.00 | 38 | 1017.5 |
| 20260906194012 | 90 | 332 | 0.0 | 4.0 | 0.00 | 0.00 | 0.00 | 37 | 1017.7 |
| 20260906193513 | 90 | 356 | 2.0 | 4.0 | 0.00 | 0.00 | 0.00 | 37 | 1017.7 |
| 20260906193023 | 90 | 331 | 0.0 | 4.0 | 0.00 | 0.00 | 0.00 | 36 | 1017.7 |
| 20260906192515 | 90 | 288 | 0.0 | 4.0 | 0.00 | 0.00 | 0.00 | 39 | 1017.8 |
| 20260906192014 | 89 | 67 | 1.0 | 5.0 | 0.00 | 0.00 | 0.00 | 37 | 1017.8 |
| 20260906191525 | 89 | 33 | 0.0 | 6.0 | 0.00 | 0.00 | 0.00 | 39 | 1017.9 |
| 20260906191004 | 89 | 65 | 2.0 | 6.0 | 0.00 | 0.00 | 0.00 | 39 | 1018.0 |
| 20260906190505 | 88 | 261 | 0.0 | 6.0 | 0.00 | 0.00 | 0.00 | 41 | 1018.0 |
| 20260906190008 | 88 | 188 | 2.0 | 6.0 | 0.00 | 0.00 | 0.00 | 40 | 1018.2 |
| 20260906185504 | 88 | 175 | 1.0 | 6.0 | 0.00 | 0.00 | 0.00 | 41 | 1018.4 |
| 20260906185009 | 88 | 226 | 1.0 | 6.0 | 0.00 | 0.00 | 0.00 | 42 | 1018.5 |
| 20260906184514 | 87 | 58 | 2.0 | 5.0 | 0.00 | 0.00 | 0.00 | 42 | 1018.7 |
| 20260906184008 | 87 | 76 | 1.0 | 4.0 | 0.00 | 0.00 | 0.00 | 42 | 1018.7 |
| 20260906183511 | 87 | 20 | 1.0 | 5.0 | 0.00 | 0.00 | 0.00 | 43 | 1018.8 |
| 20260906183019 | 86 | 71 | 1.0 | 7.0 | 0.00 | 0.00 | 0.00 | 44 | 1018.9 |
| 20260906182514 | 86 | 24 | 2.0 | 7.0 | 0.00 | 0.00 | 0.00 | 44 | 1018.9 |
| 20260906182016 | 87 | 80 | 0.0 | 3.0 | 0.00 | 0.00 | 0.00 | 44 | 1018.9 |
| 20260906181504 | 86 | 228 | 1.0 | 5.0 | 0.00 | 0.00 | 0.00 | 45 | 1019.0 |
| 20260906181004 | 86 | 81 | 1.0 | 5.0 | 0.00 | 0.00 | 0.00 | 43 | 1019.1 |
| 20260906180506 | 86 | 83 | 1.0 | 5.0 | 0.00 | 0.00 | 0.00 | 46 | 1019.2 |
| 20260906180005 | 85 | 77 | 1.0 | 6.0 | 0.00 | 0.00 | 0.00 | 46 | 1019.4 |
| 20260906175503 | 85 | 56 | 2.0 | 6.0 | 0.00 | 0.00 | 0.00 | 45 | 1019.5 |
| 20260906175003 | 85 | 170 | 0.0 | 4.0 | 0.00 | 0.00 | 0.00 | 47 | 1019.5 |
| 20260906174511 | 84 | 95 | 0.0 | 4.0 | 0.00 | 0.00 | 0.00 | 48 | 1019.5 |
| 20260906174006 | 84 | 38 | 0.0 | 4.0 | 0.00 | 0.00 | 0.00 | 50 | 1019.6 |
| 20260906173509 | 83 | 260 | 0.0 | 6.0 | 0.00 | 0.00 | 0.00 | 52 | 1019.7 |
| 20260906173014 | 83 | 68 | 2.0 | 6.0 | 0.00 | 0.00 | 0.00 | 50 | 1019.8 |
| 20260906172513 | 83 | 72 | 1.0 | 4.0 | 0.00 | 0.00 | 0.00 | 51 | 1019.9 |
| 20260906172013 | 82 | 108 | 0.0 | 6.0 | 0.00 | 0.00 | 0.00 | 51 | 1019.9 |
| 20260906171524 | 82 | 57 | 2.0 | 6.0 | 0.00 | 0.00 | 0.00 | 51 | 1020.2 |
| 20260906171013 | 82 | 68 | 1.0 | 5.0 | 0.00 | 0.00 | 0.00 | 51 | 1020.4 |
| 20260906170516 | 82 | 50 | 1.0 | 6.0 | 0.00 | 0.00 | 0.00 | 52 | 1020.4 |
| 20260906170005 | 81 | 65 | 2.0 | 6.0 | 0.00 | 0.00 | 0.00 | 52 | 1020.4 |
| 20260906165504 | 81 | 56 | 1.0 | 4.0 | 0.00 | 0.00 | 0.00 | 53 | 1020.3 |
| 20260906165003 | 80 | 360 | 0.0 | 4.0 | 0.00 | 0.00 | 0.00 | 54 | 1020.4 |
| 20260906164508 | 80 | 337 | 1.0 | 3.0 | 0.00 | 0.00 | 0.00 | 53 | 1020.4 |
| 20260906164006 | 80 | 69 | 0.0 | 2.0 | 0.00 | 0.00 | 0.00 | 53 | 1020.4 |
| 20260906163506 | 80 | 82 | 1.0 | 2.0 | 0.00 | 0.00 | 0.00 | 53 | 1020.2 |
| 20260906163011 | 80 | 54 | 0.0 | 2.0 | 0.00 | 0.00 | 0.00 | 55 | 1020.2 |
| 20260906162507 | 79 | 59 | 0.0 | 3.0 | 0.00 | 0.00 | 0.00 | 54 | 1020.2 |
| 20260906162015 | 78 | 181 | 0.0 | 4.0 | 0.00 | 0.00 | 0.00 | 57 | 1020.3 |
| 20260906161524 | 78 | 34 | 0.0 | 4.0 | 0.00 | 0.00 | 0.00 | 57 | 1020.3 |
| 20260906161013 | 77 | 45 | 1.0 | 4.0 | 0.00 | 0.00 | 0.00 | 57 | 1020.4 |
| 20260906160511 | 76 | 58 | 0.0 | 4.0 | 0.00 | 0.00 | 0.00 | 59 | 1020.5 |
| 20260906160031 | 76 | 66 | 1.0 | 6.0 | 0.00 | 0.00 | 0.00 | 60 | 1020.5 |
| 20260906155514 | 75 | 26 | 1.0 | 6.0 | 0.00 | 0.00 | 0.00 | 60 | 1020.4 |
| 20260906155019 | 75 | 7 | 2.0 | 4.0 | 0.00 | 0.00 | 0.00 | 61 | 1020.4 |
| 20260906154505 | 74 | 48 | 1.0 | 4.0 | 0.00 | 0.00 | 0.00 | 62 | 1020.4 |
| 20260906154004 | 73 | 39 | 0.0 | 4.0 | 0.00 | 0.00 | 0.00 | 63 | 1020.4 |
| 20260906153506 | 73 | 339 | 1.0 | 3.0 | 0.00 | 0.00 | 0.00 | 64 | 1020.4 |
| 20260906153015 | 72 | 35 | 0.0 | 4.0 | 0.00 | 0.00 | 0.00 | 66 | 1020.5 |
| 20260906152507 | 72 | 67 | 1.0 | 5.0 | 0.00 | 0.00 | 0.00 | 66 | 1020.6 |
| 20260906152008 | 71 | 27 | 1.0 | 5.0 | 0.00 | 0.00 | 0.00 | 68 | 1020.5 |
| 20260906151514 | 70 | 83 | 1.0 | 5.0 | 0.00 | 0.00 | 0.00 | 68 | 1020.6 |
| 20260906151012 | 70 | 69 | 2.0 | 5.0 | 0.00 | 0.00 | 0.00 | 69 | 1020.7 |
| 20260906150510 | 70 | 70 | 1.0 | 5.0 | 0.00 | 0.00 | 0.00 | 69 | 1020.7 |
| 20260906150025 | 69 | 44 | 1.0 | 4.0 | 0.00 | 0.00 | 0.00 | 70 | 1020.7 |
| 20260906145515 | 69 | 42 | 0.0 | 5.0 | 0.00 | 0.00 | 0.00 | 70 | 1020.8 |
| 20260906145014 | 69 | 67 | 2.0 | 5.0 | 0.00 | 0.00 | 0.00 | 70 | 1020.7 |
| 20260906144526 | 69 | 78 | 1.0 | 5.0 | 0.00 | 0.00 | 0.00 | 69 | 1020.7 |
| 20260906144015 | 70 | 52 | 2.0 | 5.0 | 0.00 | 0.00 | 0.00 | 69 | 1020.6 |
| 20260906143505 | 70 | 88 | 1.0 | 5.0 | 0.00 | 0.00 | 0.00 | 69 | 1020.5 |
| 20260906143009 | 70 | 58 | 2.0 | 5.0 | 0.00 | 0.00 | 0.00 | 70 | 1020.5 |
| 20260906142504 | 69 | 62 | 0.0 | 4.0 | 0.00 | 0.00 | 0.00 | 70 | 1020.6 |
| 20260906142008 | 69 | 54 | 0.0 | 4.0 | 0.00 | 0.00 | 0.00 | 71 | 1020.6 |
| 20260906141517 | 68 | 49 | 0.0 | 4.0 | 0.00 | 0.00 | 0.00 | 72 | 1020.6 |
| 20260906141007 | 68 | 80 | 0.0 | 4.0 | 0.00 | 0.00 | 0.00 | 72 | 1020.6 |
| 20260906140512 | 67 | 80 | 1.0 | 4.0 | 0.00 | 0.00 | 0.00 | 72 | 1020.7 |
| 20260906140018 | 67 | 58 | 0.0 | 4.0 | 0.00 | 0.00 | 0.00 | 72 | 1020.7 |
| 20260906135513 | 66 | 72 | 0.0 | 3.0 | 0.00 | 0.00 | 0.00 | 72 | 1020.7 |
| 20260906135011 | 65 | 60 | 0.0 | 3.0 | 0.00 | 0.00 | 0.00 | 73 | 1020.7 |
| 20260906134526 | 65 | 348 | 0.0 | 0.0 | 0.00 | 0.00 | 0.00 | 73 | 1020.6 |
| 20260906134015 | 65 | 337 | 0.0 | 1.0 | 0.00 | 0.00 | 0.00 | 75 | 1020.6 |
| 20260906133519 | 64 | 270 | 0.0 | 2.0 | 0.00 | 0.00 | 0.00 | 77 | 1020.6 |
| 20260906133038 | 64 | 280 | 0.0 | 2.0 | 0.00 | 0.00 | 0.00 | 77 | 1020.6 |
| 20260906132514 | 64 | 279 | 0.0 | 2.0 | 0.00 | 0.00 | 0.00 | 77 | 1020.5 |
| 20260906132003 | 64 | 279 | 0.0 | 1.0 | 0.00 | 0.00 | 0.00 | 78 | 1020.5 |
| 20260906131511 | 64 | 279 | 0.0 | 1.0 | 0.00 | 0.00 | 0.00 | 79 | 1020.6 |
| 20260906131005 | 64 | 283 | 0.0 | 1.0 | 0.00 | 0.00 | 0.00 | 79 | 1020.5 |
| 20260906130509 | 64 | 283 | 0.0 | 1.0 | 0.00 | 0.00 | 0.00 | 80 | 1020.5 |
| 20260906130016 | 63 | 283 | 0.0 | 1.0 | 0.00 | 0.00 | 0.00 | 81 | 1020.5 |
| 20260906125512 | 63 | 281 | 0.0 | 0.0 | 0.00 | 0.00 | 0.00 | 80 | 1020.4 |
| 20260906125012 | 63 | 281 | 0.0 | 0.0 | 0.00 | 0.00 | 0.00 | 80 | 1020.4 |
| 20260906124521 | 63 | 281 | 0.0 | 0.0 | 0.00 | 0.00 | 0.00 | 80 | 1020.4 |
| 20260906124014 | 63 | 282 | 0.0 | 0.0 | 0.00 | 0.00 | 0.00 | 79 | 1020.4 |
| 20260906123516 | 63 | 282 | 0.0 | 0.0 | 0.00 | 0.00 | 0.00 | 79 | 1020.4 |
| 20260906123030 | 63 | 282 | 0.0 | 0.0 | 0.00 | 0.00 | 0.00 | 80 | 1020.2 |
| 20260906122517 | 64 | 282 | 0.0 | 0.0 | 0.00 | 0.00 | 0.00 | 80 | 1020.2 |
| 20260906122015 | 64 | 282 | 0.0 | 2.0 | 0.00 | 0.00 | 0.00 | 80 | 1020.2 |
| 20260906121531 | 64 | 283 | 0.0 | 2.0 | 0.00 | 0.00 | 0.00 | 80 | 1020.3 |
| 20260906121003 | 64 | 283 | 0.0 | 2.0 | 0.00 | 0.00 | 0.00 | 80 | 1020.2 |
| 20260906120509 | 64 | 282 | 0.0 | 1.0 | 0.00 | 0.00 | 0.00 | 79 | 1020.2 |
| 20260906120010 | 64 | 282 | 0.0 | 2.0 | 0.00 | 0.00 | 0.00 | 79 | 1020.2 |
| 20260906115507 | 64 | 283 | 0.0 | 2.0 | 0.00 | 0.00 | 0.00 | 79 | 1020.3 |
| 20260906115007 | 64 | 283 | 0.0 | 4.0 | 0.00 | 0.00 | 0.00 | 78 | 1020.3 |
| 20260906114531 | 64 | 283 | 0.0 | 4.0 | 0.00 | 0.00 | 0.00 | 78 | 1020.2 |
| 20260906114009 | 64 | 281 | 0.0 | 2.0 | 0.00 | 0.00 | 0.00 | 77 | 1020.3 |
| 20260906113513 | 64 | 283 | 0.0 | 2.0 | 0.00 | 0.00 | 0.00 | 76 | 1020.3 |
| 20260906113026 | 64 | 283 | 0.0 | 1.0 | 0.00 | 0.00 | 0.00 | 76 | 1020.2 |
| 20260906112515 | 65 | 282 | 0.0 | 1.0 | 0.00 | 0.00 | 0.00 | 75 | 1020.3 |
| 20260906112013 | 65 | 279 | 0.0 | 1.0 | 0.00 | 0.00 | 0.00 | 73 | 1020.1 |
| 20260906111529 | 65 | 279 | 0.0 | 1.0 | 0.00 | 0.00 | 0.00 | 72 | 1020.1 |
| 20260906111017 | 65 | 279 | 0.0 | 1.0 | 0.00 | 0.00 | 0.00 | 71 | 1020.1 |
| 20260906110516 | 65 | 279 | 0.0 | 1.0 | 0.00 | 0.00 | 0.00 | 70 | 1020.1 |
| 20260906110029 | 65 | 279 | 0.0 | 0.0 | 0.00 | 0.00 | 0.00 | 70 | 1020.0 |
| 20260906105506 | 65 | 279 | 0.0 | 1.0 | 0.00 | 0.00 | 0.00 | 69 | 1020.2 |
| 20260906105009 | 65 | 279 | 0.0 | 1.0 | 0.00 | 0.00 | 0.00 | 69 | 1020.0 |
| 20260906104520 | 65 | 280 | 0.0 | 1.0 | 0.00 | 0.00 | 0.00 | 69 | 1019.9 |
| 20260906104010 | 65 | 280 | 0.0 | 1.0 | 0.00 | 0.00 | 0.00 | 68 | 1020.2 |
| 20260906103510 | 66 | 279 | 0.0 | 1.0 | 0.00 | 0.00 | 0.00 | 67 | 1020.0 |
| 20260906103018 | 66 | 281 | 0.0 | 0.0 | 0.00 | 0.00 | 0.00 | 67 | 1020.0 |
| 20260906102513 | 66 | 281 | 0.0 | 0.0 | 0.00 | 0.00 | 0.00 | 67 | 1020.0 |
| 20260906102015 | 66 | 282 | 0.0 | 0.0 | 0.00 | 0.00 | 0.00 | 67 | 1020.1 |
| 20260906101528 | 66 | 282 | 0.0 | 0.0 | 0.00 | 0.00 | 0.00 | 66 | 1020.1 |
| 20260906101002 | 66 | 281 | 0.0 | 0.0 | 0.00 | 0.00 | 0.00 | 66 | 1020.0 |
| 20260906100506 | 66 | 281 | 0.0 | 0.0 | 0.00 | 0.00 | 0.00 | 65 | 1020.0 |
| 20260906100005 | 66 | 281 | 0.0 | 1.0 | 0.00 | 0.00 | 0.00 | 65 | 1020.0 |
| 20260906095507 | 66 | 281 | 0.0 | 1.0 | 0.00 | 0.00 | 0.00 | 63 | 1020.1 |
| 20260906095006 | 66 | 281 | 0.0 | 1.0 | 0.00 | 0.00 | 0.00 | 63 | 1019.9 |
| 20260906094508 | 67 | 281 | 0.0 | 2.0 | 0.00 | 0.00 | 0.00 | 62 | 1019.7 |
| 20260906094010 | 67 | 282 | 0.0 | 2.0 | 0.00 | 0.00 | 0.00 | 62 | 1019.7 |
| 20260906093510 | 67 | 283 | 0.0 | 3.0 | 0.00 | 0.00 | 0.00 | 62 | 1019.6 |
| 20260906093020 | 67 | 287 | 0.0 | 3.0 | 0.00 | 0.00 | 0.00 | 61 | 1019.7 |
| 20260906092512 | 67 | 283 | 0.0 | 3.0 | 0.00 | 0.00 | 0.00 | 61 | 1019.7 |
| 20260906092015 | 67 | 282 | 0.0 | 1.0 | 0.00 | 0.00 | 0.00 | 60 | 1019.6 |
| 20260906091527 | 67 | 282 | 0.0 | 2.0 | 0.00 | 0.00 | 0.00 | 60 | 1019.5 |
| 20260906091014 | 67 | 279 | 0.0 | 2.0 | 0.00 | 0.00 | 0.00 | 59 | 1019.3 |
| 20260906090519 | 67 | 279 | 0.0 | 2.0 | 0.00 | 0.00 | 0.00 | 58 | 1019.3 |
| 20260906090032 | 67 | 279 | 0.0 | 2.0 | 0.00 | 0.00 | 0.00 | 59 | 1019.4 |
| 20260906085505 | 68 | 282 | 0.0 | 1.0 | 0.00 | 0.00 | 0.00 | 60 | 1019.4 |
| 20260906085004 | 68 | 281 | 0.0 | 5.0 | 0.00 | 0.00 | 0.00 | 59 | 1019.4 |
| 20260906084507 | 68 | 282 | 0.0 | 5.0 | 0.00 | 0.00 | 0.00 | 60 | 1019.2 |
| 20260906084007 | 68 | 282 | 0.0 | 4.0 | 0.00 | 0.00 | 0.00 | 59 | 1019.3 |
| 20260906083513 | 68 | 283 | 1.0 | 5.0 | 0.00 | 0.00 | 0.00 | 59 | 1019.3 |
| 20260906083014 | 68 | 283 | 0.0 | 5.0 | 0.00 | 0.00 | 0.00 | 59 | 1019.3 |
| 20260906082510 | 68 | 282 | 1.0 | 4.0 | 0.00 | 0.00 | 0.00 | 58 | 1019.4 |
| 20260906082011 | 68 | 282 | 0.0 | 4.0 | 0.00 | 0.00 | 0.00 | 57 | 1019.4 |
| 20260906081520 | 69 | 283 | 0.0 | 2.0 | 0.00 | 0.00 | 0.00 | 56 | 1019.5 |
| 20260906081014 | 69 | 283 | 0.0 | 7.0 | 0.00 | 0.00 | 0.00 | 56 | 1019.5 |
| 20260906080516 | 69 | 283 | 0.0 | 7.0 | 0.00 | 0.00 | 0.00 | 56 | 1019.5 |
| 20260906080025 | 69 | 283 | 1.0 | 7.0 | 0.00 | 0.00 | 0.00 | 54 | 1019.5 |
| 20260906075517 | 69 | 283 | 0.0 | 7.0 | 0.00 | 0.00 | 0.00 | 54 | 1019.5 |
| 20260906075017 | 69 | 282 | 0.0 | 8.0 | 0.00 | 0.00 | 0.00 | 53 | 1019.5 |
| 20260906074505 | 69 | 281 | 0.0 | 8.0 | 0.00 | 0.00 | 0.00 | 54 | 1019.6 |
| 20260906074003 | 69 | 283 | 1.0 | 8.0 | 0.00 | 0.00 | 0.00 | 54 | 1019.7 |
| 20260906073508 | 69 | 282 | 0.0 | 1.0 | 0.00 | 0.00 | 0.00 | 54 | 1019.6 |
| 20260906073013 | 69 | 279 | 0.0 | 1.0 | 0.00 | 0.00 | 0.00 | 55 | 1019.4 |
| 20260906072509 | 69 | 279 | 0.0 | 1.0 | 0.00 | 0.00 | 0.00 | 56 | 1019.5 |
| 20260906072009 | 69 | 282 | 0.0 | 1.0 | 0.00 | 0.00 | 0.00 | 57 | 1019.3 |
| 20260906071517 | 69 | 282 | 0.0 | 1.0 | 0.00 | 0.00 | 0.00 | 56 | 1019.4 |
| 20260906071014 | 69 | 283 | 0.0 | 1.0 | 0.00 | 0.00 | 0.00 | 55 | 1019.4 |
| 20260906070512 | 68 | 270 | 0.0 | 0.0 | 0.00 | 0.00 | 0.00 | 56 | 1019.2 |
| 20260906070023 | 69 | 287 | 0.0 | 3.0 | 0.00 | 0.00 | 0.00 | 56 | 1019.2 |
| 20260906065519 | 69 | 284 | 0.0 | 3.0 | 0.00 | 0.00 | 0.00 | 56 | 1019.5 |
| 20260906065015 | 69 | 281 | 0.0 | 2.0 | 0.00 | 0.00 | 0.00 | 52 | 1019.5 |
| 20260906064527 | 69 | 281 | 0.0 | 2.0 | 0.00 | 0.00 | 0.00 | 52 | 1019.3 |
| 20260906064021 | 70 | 281 | 0.0 | 2.0 | 0.00 | 0.00 | 0.00 | 51 | 1019.5 |
| 20260906063520 | 70 | 270 | 0.0 | 1.0 | 0.00 | 0.00 | 0.00 | 51 | 1019.7 |
| 20260906063007 | 71 | 282 | 0.0 | 1.0 | 0.00 | 0.00 | 0.00 | 50 | 1019.9 |
| 20260906062508 | 71 | 270 | 0.0 | 1.0 | 0.00 | 0.00 | 0.00 | 49 | 1019.8 |
| 20260906062012 | 71 | 279 | 0.0 | 1.0 | 0.00 | 0.00 | 0.00 | 48 | 1019.6 |
| 20260906061514 | 71 | 279 | 0.0 | 2.0 | 0.00 | 0.00 | 0.00 | 48 | 1019.6 |
| 20260906061010 | 72 | 279 | 0.0 | 2.0 | 0.00 | 0.00 | 0.00 | 48 | 1019.6 |
| 20260906060512 | 72 | 279 | 0.0 | 2.0 | 0.00 | 0.00 | 0.00 | 49 | 1019.7 |
| 20260906060026 | 72 | 279 | 0.0 | 2.0 | 0.00 | 0.00 | 0.00 | 48 | 1019.6 |
| 20260906055514 | 72 | 270 | 0.0 | 2.0 | 0.00 | 0.00 | 0.00 | 48 | 1019.5 |
| 20260906055015 | 72 | 289 | 0.0 | 2.0 | 0.00 | 0.00 | 0.00 | 48 | 1019.5 |
| 20260906054541 | 72 | 270 | 0.0 | 1.0 | 0.00 | 0.00 | 0.00 | 49 | 1019.5 |
| 20260906054016 | 73 | 286 | 0.0 | 1.0 | 0.00 | 0.00 | 0.00 | 50 | 1019.4 |
| 20260906053516 | 73 | 270 | 0.0 | 1.0 | 0.00 | 0.00 | 0.00 | 50 | 1019.6 |
| 20260906053031 | 73 | 284 | 0.0 | 1.0 | 0.00 | 0.00 | 0.00 | 48 | 1019.6 |
| 20260906052518 | 73 | 285 | 0.0 | 1.0 | 0.00 | 0.00 | 0.00 | 46 | 1019.7 |
| 20260906052018 | 73 | 285 | 0.0 | 1.0 | 0.00 | 0.00 | 0.00 | 47 | 1019.6 |
| 20260906051509 | 73 | 285 | 0.0 | 1.0 | 0.00 | 0.00 | 0.00 | 47 | 1019.5 |
| 20260906051010 | 73 | 279 | 0.0 | 0.0 | 0.00 | 0.00 | 0.00 | 47 | 1019.4 |
| 20260906050509 | 73 | 279 | 0.0 | 1.0 | 0.00 | 0.00 | 0.00 | 47 | 1019.3 |
| 20260906050016 | 73 | 279 | 0.0 | 1.0 | 0.00 | 0.00 | 0.00 | 47 | 1019.2 |
| 20260906045512 | 73 | 279 | 0.0 | 3.0 | 0.00 | 0.00 | 0.00 | 46 | 1018.8 |
| 20260906045012 | 73 | 279 | 0.0 | 3.0 | 0.00 | 0.00 | 0.00 | 46 | 1018.6 |
| 20260906044521 | 74 | 279 | 1.0 | 3.0 | 0.00 | 0.00 | 0.00 | 46 | 1018.5 |
| 20260906044018 | 74 | 287 | 0.0 | 1.0 | 0.00 | 0.00 | 0.00 | 45 | 1018.5 |
| 20260906043516 | 74 | 287 | 0.0 | 1.0 | 0.00 | 0.00 | 0.00 | 45 | 1018.5 |
| 20260906043032 | 74 | 287 | 0.0 | 2.0 | 0.00 | 0.00 | 0.00 | 45 | 1018.5 |
| 20260906042518 | 74 | 287 | 0.0 | 2.0 | 0.00 | 0.00 | 0.00 | 44 | 1018.5 |
| 20260906042017 | 75 | 285 | 0.0 | 2.0 | 0.00 | 0.00 | 0.00 | 42 | 1018.4 |
| 20260906041534 | 75 | 287 | 0.0 | 2.0 | 0.00 | 0.00 | 0.00 | 40 | 1018.2 |
| 20260906041015 | 76 | 283 | 0.0 | 1.0 | 0.00 | 0.00 | 0.00 | 42 | 1018.1 |
| 20260906040508 | 76 | 287 | 0.0 | 1.0 | 0.00 | 0.00 | 0.00 | 40 | 1018.0 |
| 20260906040026 | 76 | 287 | 0.0 | 1.0 | 0.00 | 0.00 | 0.00 | 40 | 1018.1 |
| 20260906035510 | 77 | 329 | 0.0 | 1.0 | 0.00 | 0.00 | 0.00 | 40 | 1018.2 |
| 20260906035010 | 77 | 330 | 0.0 | 1.0 | 0.00 | 0.00 | 0.00 | 40 | 1018.3 |
| 20260906034520 | 77 | 68 | 0.0 | 1.0 | 0.00 | 0.00 | 0.00 | 40 | 1018.4 |
| 20260906034014 | 78 | 24 | 0.0 | 1.0 | 0.00 | 0.00 | 0.00 | 39 | 1018.4 |
| 20260906033512 | 78 | 283 | 0.0 | 1.0 | 0.00 | 0.00 | 0.00 | 39 | 1018.4 |
| 20260906033039 | 79 | 77 | 0.0 | 1.0 | 0.00 | 0.00 | 0.00 | 38 | 1018.5 |
| 20260906032515 | 79 | 79 | 0.0 | 1.0 | 0.00 | 0.00 | 0.00 | 36 | 1018.4 |
| 20260906032016 | 79 | 77 | 0.0 | 1.0 | 0.00 | 0.00 | 0.00 | 36 | 1018.2 |
| 20260906031529 | 80 | 68 | 0.0 | 1.0 | 0.00 | 0.00 | 0.00 | 35 | 1018.2 |
| 20260906031017 | 80 | 68 | 0.0 | 3.0 | 0.00 | 0.00 | 0.00 | 35 | 1018.1 |
| 20260906030517 | 80 | 299 | 0.0 | 3.0 | 0.00 | 0.00 | 0.00 | 34 | 1018.1 |
| 20260906030034 | 80 | 312 | 0.0 | 4.0 | 0.00 | 0.00 | 0.00 | 35 | 1018.0 |
| 20260906025519 | 80 | 22 | 0.0 | 4.0 | 0.00 | 0.00 | 0.00 | 35 | 1018.0 |
| 20260906025009 | 80 | 17 | 0.0 | 3.0 | 0.00 | 0.00 | 0.00 | 34 | 1017.9 |
| 20260906024514 | 80 | 227 | 0.0 | 3.0 | 0.00 | 0.00 | 0.00 | 34 | 1017.8 |
| 20260906024014 | 80 | 279 | 0.0 | 3.0 | 0.00 | 0.00 | 0.00 | 34 | 1017.8 |
| 20260906023515 | 80 | 326 | 0.0 | 1.0 | 0.00 | 0.00 | 0.00 | 34 | 1017.7 |
| 20260906023023 | 80 | 279 | 0.0 | 3.0 | 0.00 | 0.00 | 0.00 | 33 | 1017.6 |
| 20260906022516 | 80 | 281 | 0.0 | 4.0 | 0.00 | 0.00 | 0.00 | 33 | 1017.5 |
| 20260906022016 | 81 | 231 | 0.0 | 11.0 | 0.00 | 0.00 | 0.00 | 33 | 1017.5 |
| 20260906021528 | 81 | 270 | 2.0 | 11.0 | 0.00 | 0.00 | 0.00 | 33 | 1017.5 |
| 20260906021017 | 81 | 289 | 3.0 | 12.0 | 0.00 | 0.00 | 0.00 | 33 | 1017.4 |
| 20260906020517 | 81 | 233 | 5.0 | 12.0 | 0.00 | 0.00 | 0.00 | 32 | 1017.2 |
| 20260906020034 | 81 | 285 | 2.0 | 8.0 | 0.00 | 0.00 | 0.00 | 32 | 1017.2 |
| 20260906015519 | 81 | 290 | 3.0 | 8.0 | 0.00 | 0.00 | 0.00 | 33 | 1017.2 |
| 20260906015018 | 81 | 295 | 2.0 | 9.0 | 0.00 | 0.00 | 0.00 | 33 | 1017.2 |
| 20260906014535 | 81 | 359 | 2.0 | 9.0 | 0.00 | 0.00 | 0.00 | 32 | 1017.3 |
| 20260906014010 | 81 | 290 | 3.0 | 9.0 | 0.00 | 0.00 | 0.00 | 32 | 1017.2 |
| 20260906013510 | 81 | 289 | 3.0 | 10.0 | 0.00 | 0.00 | 0.00 | 32 | 1017.2 |
| 20260906013016 | 82 | 221 | 3.0 | 10.0 | 0.00 | 0.00 | 0.00 | 32 | 1017.1 |
| 20260906012515 | 82 | 221 | 2.0 | 9.0 | 0.00 | 0.00 | 0.00 | 32 | 1017.2 |
| 20260906012012 | 82 | 27 | 3.0 | 9.0 | 0.00 | 0.00 | 0.00 | 32 | 1017.3 |
| 20260906011528 | 82 | 270 | 4.0 | 11.0 | 0.00 | 0.00 | 0.00 | 33 | 1017.4 |
| 20260906011004 | 82 | 279 | 3.0 | 11.0 | 0.00 | 0.00 | 0.00 | 33 | 1017.4 |
| 20260906010508 | 82 | 288 | 5.0 | 16.0 | 0.00 | 0.00 | 0.00 | 32 | 1017.3 |
| 20260906010006 | 82 | 302 | 6.0 | 16.0 | 0.00 | 0.00 | 0.00 | 32 | 1017.3 |
| 20260906005504 | 83 | 212 | 3.0 | 13.0 | 0.00 | 0.00 | 0.00 | 32 | 1017.4 |
| 20260906005008 | 83 | 280 | 6.0 | 15.0 | 0.00 | 0.00 | 0.00 | 31 | 1017.4 |
| 20260906004511 | 83 | 304 | 6.0 | 15.0 | 0.00 | 0.00 | 0.00 | 31 | 1017.5 |
| 20260906004009 | 84 | 221 | 5.0 | 20.0 | 0.00 | 0.00 | 0.00 | 31 | 1017.7 |
| 20260906003507 | 84 | 281 | 4.0 | 20.0 | 0.00 | 0.00 | 0.00 | 30 | 1017.7 |
| 20260906003007 | 85 | 302 | 6.0 | 12.0 | 0.00 | 0.00 | 0.00 | 29 | 1017.7 |
| 20260906002509 | 86 | 24 | 6.0 | 12.0 | 0.00 | 0.00 | 0.00 | 29 | 1017.6 |
| 20260906002008 | 86 | 275 | 3.0 | 10.0 | 0.00 | 0.00 | 0.00 | 28 | 1017.5 |
| 20260906001510 | 87 | 209 | 3.0 | 14.0 | 0.00 | 0.00 | 0.00 | 27 | 1017.5 |
| 20260906001007 | 87 | 309 | 5.0 | 14.0 | 0.00 | 0.00 | 0.00 | 26 | 1017.3 |
| 20260906000507 | 88 | 262 | 4.0 | 13.0 | 0.00 | 0.00 | 0.00 | 26 | 1017.2 |
| 20260906000011 | 88 | 270 | 6.0 | 15.0 | 0.00 | 0.00 | 0.00 | 26 | 1017.2 |
| 20260905235508 | 89 | 262 | 6.0 | 15.0 | 0.00 | 0.00 | 0.00 | 25 | 1017.3 |
| 20260905235008 | 90 | 248 | 5.0 | 10.0 | 0.00 | 0.00 | 0.00 | 25 | 1017.2 |
| 20260905234512 | 91 | 270 | 1.0 | 5.0 | 0.00 | 0.00 | 0.00 | 24 | 1017.3 |
| 20260905234004 | 91 | 289 | 0.0 | 2.0 | 0.00 | 0.00 | 0.00 | 24 | 1017.2 |
| 20260905233509 | 91 | 295 | 1.0 | 3.0 | 0.00 | 0.00 | 0.00 | 23 | 1017.1 |
| 20260905233009 | 91 | 289 | 1.0 | 3.0 | 0.00 | 0.00 | 0.00 | 21 | 1017.0 |
| 20260905232510 | 91 | 283 | 1.0 | 3.0 | 0.00 | 0.00 | 0.00 | 22 | 1017.0 |
| 20260905232008 | 91 | 294 | 1.0 | 3.0 | 0.00 | 0.00 | 0.00 | 23 | 1016.8 |
| 20260905231518 | 91 | 289 | 1.0 | 3.0 | 0.00 | 0.00 | 0.00 | 22 | 1016.8 |
| 20260905231007 | 91 | 281 | 1.0 | 3.0 | 0.00 | 0.00 | 0.00 | 23 | 1016.8 |
| 20260905230507 | 91 | 280 | 0.0 | 2.0 | 0.00 | 0.00 | 0.00 | 22 | 1016.8 |
| 20260905230012 | 91 | 185 | 0.0 | 1.0 | 0.00 | 0.00 | 0.00 | 23 | 1016.7 |
| 20260905225508 | 91 | 185 | 0.0 | 1.0 | 0.00 | 0.00 | 0.00 | 22 | 1016.6 |
| 20260905225011 | 91 | 71 | 0.0 | 1.0 | 0.00 | 0.00 | 0.00 | 25 | 1016.6 |
| 20260905224520 | 91 | 71 | 0.0 | 2.0 | 0.00 | 0.00 | 0.00 | 24 | 1016.7 |
| 20260905224010 | 91 | 69 | 0.0 | 3.0 | 0.00 | 0.00 | 0.00 | 25 | 1016.6 |
| 20260905223510 | 92 | 80 | 0.0 | 3.0 | 0.00 | 0.00 | 0.00 | 22 | 1016.6 |
| 20260905223010 | 92 | 76 | 0.0 | 2.0 | 0.00 | 0.00 | 0.00 | 21 | 1016.6 |
| 20260905222509 | 92 | 174 | 0.0 | 3.0 | 0.00 | 0.00 | 0.00 | 22 | 1016.6 |
| 20260905222008 | 92 | 111 | 0.0 | 3.0 | 0.00 | 0.00 | 0.00 | 22 | 1016.5 |
| 20260905221513 | 93 | 229 | 1.0 | 4.0 | 0.00 | 0.00 | 0.00 | 22 | 1016.5 |
| 20260905221011 | 93 | 146 | 1.0 | 5.0 | 0.00 | 0.00 | 0.00 | 21 | 1016.5 |
| 20260905220510 | 94 | 75 | 0.0 | 5.0 | 0.00 | 0.00 | 0.00 | 20 | 1016.5 |
| 20260905220015 | 94 | 212 | 0.0 | 3.0 | 0.00 | 0.00 | 0.00 | 20 | 1016.6 |
| 20260905215509 | 94 | 11 | 0.0 | 6.0 | 0.00 | 0.00 | 0.00 | 21 | 1016.7 |
| 20260905215011 | 94 | 88 | 0.0 | 8.0 | 0.00 | 0.00 | 0.00 | 21 | 1016.8 |
| 20260905214514 | 93 | 50 | 2.0 | 8.0 | 0.00 | 0.00 | 0.00 | 23 | 1016.8 |